Location: Double Diamond Ranch
(30.2800°N, 103.5900°W)
Time: 17:56:07
(UTC-06:00)

Envisat - Visible Passes

Search period start: 22 January 2018 00:00
Search period end: 01 February 2018 00:00
Orbit: 764 x 766 km, 98.2° (Epoch: 22 January)

Date Brightness Start Highest point End Pass type
(mag) Time Alt. Az. Time Alt. Az. Time Alt. Az.
24 Jan 5.3 20:19:27 11° N 20:19:27 11° N 20:19:37 10° N visible
26 Jan 5.3 20:44:45 14° NNW 20:44:45 14° NNW 20:45:22 10° NNW visible
27 Jan 4.9 20:07:18 15° NNE 20:07:18 15° NNE 20:08:18 10° N visible
28 Jan 5.0 19:29:51 11° NE 19:29:51 11° NE 19:30:10 10° NNE visible
28 Jan 5.4 21:10:02 14° NNW 21:10:02 14° NNW 21:10:45 10° NNW visible
29 Jan 4.7 20:32:33 21° N 20:32:33 21° N 20:34:13 10° N visible
30 Jan 4.5 19:55:04 19° NNE 19:55:04 19° NNE 19:56:55 10° NNE visible
30 Jan 5.7 21:35:16 12° NW 21:35:16 12° NW 21:35:40 10° NW visible
31 Jan 4.9 19:17:35 11° NE 19:17:35 11° NE 19:17:59 10° NE visible
31 Jan 4.7 20:57:47 24° NNW 20:57:47 24° NNW 20:59:45 10° NNW visible
